FW2346 Weather Reports


Display with metric or nautical units.
time (UTC)temp
F
wind
direction
speed
MPH
gust
MPH
rain 1hr
in
rain 24hr
in
rain mn
in
humidity
%
barometer
mb
20260905021536 84 120 3.0 6.0 0.00 0.00 0.00 57 1015.0
20260905020050 84 73 2.0 5.0 0.00 0.00 0.00 57 1015.0
20260905014602 84 121 3.0 4.0 0.00 0.00 0.00 58 1015.3
20260905013100 84 122 1.0 4.0 0.00 0.00 0.00 57 1015.1
20260905011504 84 105 2.0 7.0 0.00 0.00 0.00 58 1015.3
20260905010059 85 115 2.0 4.0 0.00 0.00 0.00 56 1015.5
20260905004511 85 127 2.0 10.0 0.00 0.00 0.00 54 1015.3
20260905003103 86 91 5.0 9.0 0.00 0.00 0.00 52 1015.1
20260905001610 87 50 3.0 5.0 0.00 0.00 0.00 51 1015.4
20260905000104 87 169 0.0 6.0 0.00 0.00 0.00 51 1016.0
20260904234554 88 155 1.0 3.0 0.00 0.00 0.00 50 1015.9
20260904233055 87 10 0.0 5.0 0.00 0.00 0.00 52 1015.2
20260904231540 88 305 4.0 6.0 0.00 0.00 0.00 49 1015.1
20260904230047 89 347 1.0 4.0 0.00 0.00 0.00 48 1015.5
20260904224600 89 317 2.0 4.0 0.00 0.00 0.00 47 1015.6
20260904223016 89 283 0.0 4.0 0.00 0.00 0.00 47 1016.0
20260904221523 90 218 2.0 5.0 0.00 0.00 0.00 46 1016.1
20260904220108 90 268 0.0 5.0 0.00 0.00 0.00 45 1015.7
20260904214556 90 148 3.0 12.0 0.00 0.00 0.00 43 1015.7
20260904213051 92 6 5.0 11.0 0.00 0.00 0.00 44 1015.0
20260904211606 91 46 5.0 9.0 0.00 0.00 0.00 45 1015.1
20260904210027 90 356 2.0 4.0 0.00 0.00 0.00 46 1015.4
20260904204532 89 322 2.0 5.0 0.00 0.00 0.00 46 1015.8
20260904203018 90 313 2.0 5.0 0.00 0.00 0.00 47 1015.8
20260904201510 90 297 1.0 3.0 0.00 0.00 0.00 47 1015.7
20260904200031 91 289 2.0 4.0 0.00 0.00 0.00 46 1015.5
20260904194538 92 283 2.0 4.0 0.00 0.00 0.00 45 1015.3
20260904193019 92 330 3.0 6.0 0.00 0.00 0.00 44 1014.9
20260904191546 92 307 3.0 8.0 0.00 0.00 0.00 45 1014.9
20260904190039 92 307 4.0 10.0 0.00 0.00 0.00 45 1014.9
20260904184541 92 300 3.0 10.0 0.00 0.00 0.00 46 1015.0
20260904183025 92 284 3.0 7.0 0.00 0.00 0.00 47 1015.2
20260904181550 92 276 3.0 8.0 0.00 0.00 0.00 47 1015.3
20260904180008 93 266 6.0 10.0 0.00 0.00 0.00 47 1015.3
20260904174530 94 278 5.0 11.0 0.00 0.00 0.00 47 1015.3
20260904173008 95 292 3.0 9.0 0.00 0.00 0.00 47 1015.3
20260904171535 96 295 4.0 10.0 0.00 0.00 0.00 45 1015.1
20260904170107 97 295 2.0 8.0 0.00 0.00 0.00 41 1015.0
20260904164608 98 283 1.0 6.0 0.00 0.00 0.00 38 1014.9
20260904163100 100 289 2.0 5.0 0.00 0.00 0.00 36 1015.0
20260904161556 100 338 0.0 6.0 0.00 0.00 0.00 32 1015.1
20260904160050 101 306 3.0 8.0 0.00 0.00 0.00 33 1015.2
20260904154547 102 237 0.0 6.0 0.00 0.00 0.00 34 1015.2
20260904153049 102 188 1.0 5.0 0.00 0.00 0.00 34 1015.3
20260904151540 100 63 1.0 3.0 0.00 0.00 0.00 34 1015.4
20260904150012 100 348 3.0 8.0 0.00 0.00 0.00 34 1015.7
20260904144516 100 85 2.0 7.0 0.00 0.00 0.00 34 1015.7
20260904143014 100 250 1.0 6.0 0.00 0.00 0.00 35 1016.1
20260904141505 99 280 2.0 8.0 0.00 0.00 0.00 38 1016.3
20260904140005 98 32 4.0 7.0 0.00 0.00 0.00 39 1016.4
20260904134607 99 219 2.0 5.0 0.00 0.00 0.00 40 1016.7
20260904133104 98 113 0.0 3.0 0.00 0.00 0.00 43 1016.9
20260904131518 96 47 1.0 5.0 0.00 0.00 0.00 46 1016.9
20260904130058 95 69 1.0 5.0 0.00 0.00 0.00 46 1017.3
20260904124603 94 70 1.0 4.0 0.00 0.00 0.00 48 1017.2
20260904123052 93 23 1.0 6.0 0.00 0.00 0.00 49 1017.4
20260904121550 93 238 0.0 6.0 0.00 0.00 0.00 52 1017.4
20260904120054 92 297 2.0 4.0 0.00 0.00 0.00 53 1017.8
20260904114548 91 284 2.0 4.0 0.00 0.00 0.00 54 1018.1
20260904113045 89 233 0.0 4.0 0.00 0.00 0.00 59 1018.1
20260904111536 89 356 0.0 3.0 0.00 0.00 0.00 61 1018.4
20260904110036 86 140 1.0 5.0 0.00 0.00 0.00 65 1018.8
20260904104547 85 229 1.0 5.0 0.00 0.00 0.00 67 1018.9
20260904103058 86 193 1.0 3.0 0.00 0.00 0.00 65 1019.0
20260904101522 86 195 1.0 4.0 0.00 0.00 0.00 65 1019.1
20260904100004 85 14 0.0 2.0 0.00 0.00 0.00 67 1019.1
20260904094613 84 124 0.0 2.0 0.00 0.00 0.00 69 1019.2
20260904093100 82 249 0.0 4.0 0.00 0.00 0.00 73 1019.3
20260904091526 80 238 0.0 3.0 0.00 0.00 0.00 77 1019.2
20260904090039 79 259 0.0 3.0 0.00 0.00 0.00 78 1019.3
20260904084550 78 282 0.0 5.0 0.00 0.00 0.00 80 1019.2
20260904083043 76 278 2.0 4.0 0.00 0.00 0.00 86 1019.0
20260904081538 75 268 1.0 7.0 0.00 0.00 0.00 88 1019.3
20260904080028 75 231 1.0 6.0 0.00 0.00 0.00 88 1019.0
20260904074600 75 233 2.0 5.0 0.00 0.00 0.00 88 1018.8
20260904073028 74 258 2.0 5.0 0.00 0.00 0.00 89 1018.7
20260904071540 74 262 1.0 4.0 0.00 0.00 0.00 90 1018.7
20260904070032 73 268 2.0 5.0 0.00 0.00 0.00 91 1018.7
20260904064534 73 276 0.0 3.0 0.00 0.00 0.00 92 1018.6
20260904063024 72 259 0.0 3.0 0.00 0.00 0.00 92 1018.4
20260904061534 72 279 0.0 3.0 0.00 0.00 0.00 93 1018.4
20260904060024 72 262 0.0 2.0 0.00 0.00 0.00 93 1018.3
20260904054529 72 251 0.0 4.0 0.00 0.00 0.00 93 1018.3
20260904053006 72 275 2.0 5.0 0.00 0.00 0.00 93 1018.3
20260904051607 72 276 3.0 7.0 0.00 0.00 0.00 92 1018.1
20260904050100 72 204 2.0 6.0 0.00 0.00 0.00 90 1017.8
20260904044524 73 252 2.0 5.0 0.00 0.00 0.00 88 1017.8
20260904043129 74 272 1.0 6.0 0.00 0.00 0.00 85 1018.1
20260904041602 74 277 5.0 9.0 0.00 0.00 0.00 82 1018.3
20260904040050 75 281 6.0 11.0 0.00 0.00 0.00 79 1018.2
20260904034553 77 276 6.0 10.0 0.00 0.00 0.00 73 1018.2
20260904033039 78 279 2.0 7.0 0.00 0.00 0.00 70 1018.0
20260904031545 78 276 2.0 5.0 0.00 0.00 0.00 69 1017.9
20260904030038 78 274 3.0 6.0 0.00 0.00 0.00 69 1017.9
20260904024533 79 235 2.0 7.0 0.00 0.00 0.00 69 1017.9
20260904023033 80 237 4.0 8.0 0.00 0.00 0.00 66 1018.0